Regional Weather Roundup
Issued by NWS

Home | Current Version | Previous Version | Text Only | Print | Product List | Glossary On
Versions: 1 2 3 4 5 6 7 8 9 10 11 12 13 14 15 16 17 18 19 20 21 22 23 24 25 26 27 28 29 30 31 32 33 34 35 36 37 38 39 40 41 42 43 44 45 46 47 48 49 50
000
ASUS43 KTOP 280308
RWRKS

WEATHER ROUNDUP FOR KANSAS
NATIONAL WEATHER SERVICE GOODLAND KS
1000 PM CDT THU APR 27 2017

NOTE:  "FAIR" INDICATES FEW OR NO CLOUDS BELOW 12,000 FEET WITH NO
SIGNIFICANT WEATHER AND/OR OBSTRUCTIONS TO VISIBILITY.

KSZ001>006-013>018-027>032-041>047-280400-
NORTHWEST KANSAS

CITY           SKY/WX    TMP DP  RH WIND       PRES   REMARKS
GOODLAND       LGT RAIN  43  42  97 SE6       29.55R
HAYS           CLOUDY    49  44  83 E22G31    29.59S
HILL CITY      CLOUDY    48  45  89 E18       29.61R
RUSSELL        CLOUDY    48  46  93 E17G28    29.60R
$$

KSZ061>065-074>080-084>089-280400-
SOUTHWEST KANSAS

CITY           SKY/WX    TMP DP  RH WIND       PRES   REMARKS
DODGE CITY     CLOUDY    53  45  74 SE17G29   29.50R
ELKHART          N/A     54  35  48 W5          N/A
GARDEN CITY    MOCLDY    53  43  68 SE7       29.52R
GREAT BEND     CLOUDY    50  45  83 E17G25    29.58R
LIBERAL        PTCLDY    55  40  56 W9        29.46R
PRATT          PTCLDY    50  41  71 SE15G21   29.54R
$$

KSZ066>073-081>083-090>101-280400-
SOUTHEAST KANSAS

CITY           SKY/WX    TMP DP  RH WIND       PRES   REMARKS
CHANUTE        MOCLDY    56  48  74 E6        29.71S
COFFEYVILLE    CLOUDY    57  49  74 E7        29.69S
HUTCHINSON     CLOUDY    53  45  74 E15       29.60S
MEDICINE LODGE   N/A     53  45  74 SE10G17   29.55R
NEWTON         CLOUDY    52  46  80 E12G20    29.64S
PARSONS        CLOUDY    56  48  74 VRB5      29.71S
WICHITA INTL   CLOUDY    55  45  68 E17       29.59F
WICHITA JABRA  PTCLDY    54  46  74 E13G22    29.61F
WICHITA MCCONL CLOUDY    55  45  70 SE14      29.60F
WINFIELD       CLOUDY    57  44  62 E14       29.62F
$$

KSZ007>012-019>026-033>040-048>060-102>105-280400-
NORTHEAST KANSAS

CITY           SKY/WX    TMP DP  RH WIND       PRES   REMARKS
CONCORDIA      CLOUDY    47  46  97 E12       29.69S
EMPORIA        CLOUDY    52  47  83 E8        29.71R
LAWRENCE       CLOUDY    52  49  89 NE6       29.74R
MANHATTAN      CLOUDY    51  46  83 E7        29.72R
MARYSVILLE     LGT RAIN  46  46 100 E6        29.73F
OLATHE IND     CLOUDY    52  48  86 NE7       29.74R
OLATHE EXE     CLOUDY    51  49  92 NE7       29.73R
SALINA         CLOUDY    52  47  83 E12       29.66S
TOPEKA BILLARD CLOUDY    53  48  83 E7        29.73R
TOPEKA FORBES  CLOUDY    53  47  79 NE7       29.72R
$$




USA.gov is the U.S. government's official web portal to all federal, state and local government web resources and services.